TimeEDT,TemperatureF,Dew PointF,Humidity,Sea Level PressureIn,VisibilityMPH,Wind Direction,Wind SpeedMPH,Gust SpeedMPH,PrecipitationIn,Events,Conditions,WindDirDegrees,DateUTC
12:16 AM,71.6,64.4,78,30.07,7.0,SSW,3.5,-,N/A,,Clear,210,2013-10-05 04:16:00
12:36 AM,69.8,64.4,83,30.07,3.0,Calm,Calm,-,N/A,,Haze,0,2013-10-05 04:36:00
12:56 AM,69.8,64.4,83,30.07,5.0,SSW,4.6,-,N/A,,Haze,200,2013-10-05 04:56:00
1:16 AM,69.8,64.4,83,30.07,7.0,SSW,3.5,-,N/A,,Clear,200,2013-10-05 05:16:00
1:36 AM,69.8,64.4,83,30.06,7.0,Calm,Calm,-,N/A,,Clear,0,2013-10-05 05:36:00
1:56 AM,69.8,64.4,83,30.07,7.0,SSW,3.5,-,N/A,,Clear,210,2013-10-05 05:56:00
2:16 AM,69.8,64.4,83,30.06,10.0,SSW,3.5,-,N/A,,Clear,210,2013-10-05 06:16:00
2:36 AM,69.8,64.4,83,30.06,10.0,Calm,Calm,-,N/A,,Clear,0,2013-10-05 06:36:00
2:56 AM,69.8,62.6,78,30.06,7.0,SW,3.5,-,N/A,,Clear,230,2013-10-05 06:56:00
3:16 AM,69.8,62.6,78,30.06,7.0,SW,3.5,-,N/A,,Clear,230,2013-10-05 07:16:00
3:36 AM,69.8,62.6,78,30.05,5.0,WSW,3.5,-,N/A,,Haze,240,2013-10-05 07:36:00
3:56 AM,69.8,62.6,78,30.06,5.0,WSW,3.5,-,N/A,,Haze,240,2013-10-05 07:56:00
4:16 AM,69.8,62.6,78,30.05,5.0,SW,3.5,-,N/A,,Haze,220,2013-10-05 08:16:00
4:36 AM,69.8,64.4,83,30.06,4.0,Calm,Calm,-,N/A,,Haze,0,2013-10-05 08:36:00
4:56 AM,68.0,62.6,83,30.06,5.0,Calm,Calm,-,N/A,,Haze,0,2013-10-05 08:56:00
5:16 AM,69.8,62.6,78,30.06,4.0,SW,3.5,-,N/A,,Haze,230,2013-10-05 09:16:00
5:36 AM,68.0,62.6,83,30.07,2.5,Calm,Calm,-,N/A,,Haze,0,2013-10-05 09:36:00
5:56 AM,68.0,62.6,83,30.07,1.2,Calm,Calm,-,N/A,,Haze,0,2013-10-05 09:56:00
6:18 AM,68.0,62.6,83,30.08,0.2,Calm,Calm,-,N/A,,Haze,0,2013-10-05 10:18:00
6:36 AM,68.0,62.6,83,30.09,0.2,Calm,Calm,-,N/A,,Haze,0,2013-10-05 10:36:00
6:56 AM,68.0,62.6,83,30.08,0.5,Calm,Calm,-,N/A,,Haze,0,2013-10-05 10:56:00
7:16 AM,68.0,62.6,83,30.08,0.2,Calm,Calm,-,N/A,,Haze,0,2013-10-05 11:16:00
7:36 AM,66.2,62.6,88,30.09,0.2,Calm,Calm,-,N/A,,Haze,0,2013-10-05 11:36:00
7:56 AM,69.8,64.4,83,30.09,1.2,Calm,Calm,-,N/A,,Haze,0,2013-10-05 11:56:00
8:16 AM,71.6,66.2,83,30.10,5.0,Calm,Calm,-,N/A,,Haze,0,2013-10-05 12:16:00
8:38 AM,75.2,69.8,83,30.10,10.0,Calm,Calm,-,N/A,,Clear,0,2013-10-05 12:38:00
8:56 AM,78.8,66.2,65,30.10,10.0,Calm,Calm,-,N/A,,Clear,0,2013-10-05 12:56:00
9:16 AM,78.8,66.2,65,30.10,10.0,WNW,3.5,-,N/A,,Clear,300,2013-10-05 13:16:00
9:36 AM,80.6,66.2,61,30.10,10.0,WNW,4.6,-,N/A,,Clear,300,2013-10-05 13:36:00
9:56 AM,82.4,66.2,58,30.10,10.0,Calm,Calm,-,N/A,,Clear,0,2013-10-05 13:56:00
10:16 AM,84.2,64.4,51,30.09,10.0,NW,3.5,-,N/A,,Clear,310,2013-10-05 14:16:00
10:36 AM,87.8,62.6,43,30.10,10.0,WNW,3.5,-,N/A,,Clear,300,2013-10-05 14:36:00
10:56 AM,87.8,60.8,40,30.10,10.0,North,4.6,-,N/A,,Clear,350,2013-10-05 14:56:00
11:16 AM,87.8,59.0,38,30.10,10.0,WNW,4.6,-,N/A,,Clear,300,2013-10-05 15:16:00
11:36 AM,87.8,59.0,38,30.09,10.0,WNW,5.8,-,N/A,,Clear,290,2013-10-05 15:36:00
11:56 AM,87.8,57.2,35,30.09,10.0,West,6.9,-,N/A,,Clear,260,2013-10-05 15:56:00
12:16 PM,89.6,55.4,31,30.09,10.0,WNW,5.8,-,N/A,,Clear,290,2013-10-05 16:16:00
12:38 PM,89.6,55.4,31,30.08,10.0,WNW,5.8,-,N/A,,Clear,290,2013-10-05 16:38:00
12:55 PM,89.6,53.6,29,30.08,10.0,NW,8.1,-,N/A,,Clear,310,2013-10-05 16:55:00
1:16 PM,89.6,55.4,31,30.07,10.0,NW,6.9,-,N/A,,Clear,310,2013-10-05 17:16:00
1:35 PM,89.6,57.2,33,30.06,10.0,WNW,6.9,-,N/A,,Clear,290,2013-10-05 17:35:00
1:56 PM,89.6,57.2,33,30.05,10.0,NW,5.8,-,N/A,,Clear,310,2013-10-05 17:56:00
2:16 PM,89.6,57.2,33,30.05,10.0,WNW,6.9,-,N/A,,Clear,300,2013-10-05 18:16:00
2:36 PM,91.4,57.2,31,30.05,10.0,WNW,6.9,-,N/A,,Clear,300,2013-10-05 18:36:00
2:57 PM,89.6,55.4,31,30.05,10.0,WNW,8.1,-,N/A,,Clear,300,2013-10-05 18:57:00
3:15 PM,89.6,57.2,33,30.05,10.0,WNW,8.1,-,N/A,,Clear,300,2013-10-05 19:15:00
3:37 PM,89.6,55.4,31,30.05,10.0,WNW,9.2,-,N/A,,Clear,300,2013-10-05 19:37:00
3:56 PM,89.6,55.4,31,30.04,10.0,West,5.8,-,N/A,,Clear,280,2013-10-05 19:56:00
4:16 PM,89.6,55.4,31,30.04,10.0,WNW,5.8,-,N/A,,Clear,290,2013-10-05 20:16:00
4:36 PM,89.6,53.6,29,30.04,10.0,West,4.6,-,N/A,,Clear,260,2013-10-05 20:36:00
4:57 PM,87.8,59.0,38,30.04,10.0,South,8.1,-,N/A,,Clear,190,2013-10-05 20:57:00
5:16 PM,87.8,59.0,38,30.04,10.0,South,6.9,-,N/A,,Clear,190,2013-10-05 21:16:00
5:38 PM,86.0,59.0,40,30.04,10.0,South,5.8,-,N/A,,Clear,180,2013-10-05 21:38:00
5:56 PM,84.2,60.8,45,30.04,10.0,South,4.6,-,N/A,,Clear,180,2013-10-05 21:56:00
6:16 PM,82.4,60.8,48,30.05,10.0,South,4.6,-,N/A,,Clear,180,2013-10-05 22:16:00
6:36 PM,80.6,62.6,54,30.05,10.0,South,4.6,-,N/A,,Clear,180,2013-10-05 22:36:00
6:55 PM,80.6,62.6,54,30.05,10.0,South,4.6,-,N/A,,Clear,180,2013-10-05 22:55:00
7:16 PM,78.8,62.6,57,30.05,10.0,South,3.5,-,N/A,,Clear,170,2013-10-05 23:16:00
7:36 PM,78.8,62.6,57,30.05,10.0,SSE,4.6,-,N/A,,Clear,160,2013-10-05 23:36:00
7:56 PM,78.8,64.4,61,30.05,10.0,South,4.6,-,N/A,,Clear,180,2013-10-05 23:56:00
8:16 PM,78.8,64.4,61,30.05,10.0,South,5.8,-,N/A,,Clear,180,2013-10-06 00:16:00
8:36 PM,77.0,64.4,65,30.05,10.0,South,5.8,-,N/A,,Clear,180,2013-10-06 00:36:00
8:56 PM,77.0,64.4,65,30.06,10.0,South,4.6,-,N/A,,Clear,180,2013-10-06 00:56:00
9:16 PM,77.0,64.4,65,30.06,10.0,South,4.6,-,N/A,,Clear,170,2013-10-06 01:16:00
9:38 PM,77.0,64.4,65,30.06,10.0,South,4.6,-,N/A,,Clear,180,2013-10-06 01:38:00
9:56 PM,77.0,64.4,65,30.07,7.0,South,4.6,-,N/A,,Clear,170,2013-10-06 01:56:00
10:16 PM,77.0,64.4,65,30.07,10.0,South,4.6,-,N/A,,Clear,170,2013-10-06 02:16:00
10:36 PM,75.2,64.4,69,30.07,10.0,South,4.6,-,N/A,,Clear,170,2013-10-06 02:36:00
10:56 PM,75.2,64.4,69,30.07,10.0,SSE,4.6,-,N/A,,Clear,160,2013-10-06 02:56:00
11:16 PM,75.2,64.4,69,30.07,10.0,South,4.6,-,N/A,,Clear,170,2013-10-06 03:16:00
11:36 PM,75.2,66.2,73,30.06,10.0,South,4.6,-,N/A,,Clear,180,2013-10-06 03:36:00
11:56 PM,75.2,66.2,73,30.06,10.0,SSE,3.5,-,N/A,,Clear,160,2013-10-06 03:56:00